DLH743 RJBB-EDDM

Flight info

Callsign DLH743
Flight time N/A
Altitude 33000
Route NANKO KYOTO SIGAK KCC Y88 DAIGO Y889 PUTER/N0492F340 A590 PUGAL/N0491F350 DCT POWAL DCT OPAKE DCT MARCC/N0491F370 DCT JUJXI DCT 74N160W DCT NAMWE DCT 83N130W/N0493F390 DCT 84N20 DCT 85N00 DCT 8580N DCT PELRI/M084F390 DCT 8320N DCT 78N000E/N0493F390 DCT NORVA DCT TEVMI DCT BINTU DCT SOMUB/N0496F410 DCT LILBA DCT VATEX DCT LOMPU DCT BUMIL DCT EMBOX DCT ALOSO T703 SODRO/N0458F310 T703 LULAR/N0456F300 T105 LANDU LANDU2B
Aircraft A359/H-SADE2E3GHIJ1J2J3J4J5M1P2RWXYZ/LB1D1

Departure

Time N/A
Airport Kansai International Airport (RJBB)

Arrival

Time 2026-05-05 18:24
Airport Munich Airport (EDDM)
Time Latitude Longitude Altitude Speed Heading
2026-05-05 14:53 75.01844 4.86574 39115 ft 514 kts 160°
2026-05-05 14:53 74.98505 4.90893 39112 ft 514 kts 160°
2026-05-05 14:54 74.91728 4.99601 39113 ft 513 kts 160°
2026-05-05 14:54 74.84939 5.08203 39113 ft 514 kts 160°
2026-05-05 14:55 74.78134 5.16761 39109 ft 517 kts 161°
2026-05-05 14:55 74.71313 5.25264 39099 ft 515 kts 160°
2026-05-05 14:56 74.64522 5.33637 39099 ft 512 kts 160°
2026-05-05 14:56 74.57728 5.41948 39100 ft 514 kts 161°
2026-05-05 14:57 74.50915 5.50214 39098 ft 516 kts 160°
2026-05-05 14:57 74.44090 5.58444 39090 ft 514 kts 160°
2026-05-05 14:58 74.37288 5.66556 39084 ft 512 kts 161°
2026-05-05 14:58 74.30500 5.74557 39087 ft 513 kts 161°
2026-05-05 14:59 74.23689 5.82509 39075 ft 515 kts 160°
2026-05-05 14:59 74.16860 5.90431 39076 ft 514 kts 161°
2026-05-05 15:00 74.11194 5.96955 39062 ft 513 kts 161°
2026-05-05 15:00 74.03232 6.06038 39059 ft 513 kts 161°
2026-05-05 15:01 73.96463 6.13686 39054 ft 514 kts 161°
2026-05-05 15:01 73.89624 6.21364 39057 ft 515 kts 161°
2026-05-05 15:02 73.82791 6.28938 39054 ft 514 kts 161°
2026-05-05 15:02 73.75978 6.36455 39036 ft 512 kts 161°
2026-05-05 15:03 73.69156 6.43902 39030 ft 513 kts 161°
2026-05-05 15:03 73.62311 6.51309 39043 ft 515 kts 162°
2026-05-05 15:04 73.55471 6.58644 39030 ft 513 kts 161°
2026-05-05 15:04 73.48657 6.65904 39023 ft 510 kts 161°
2026-05-05 15:05 73.38424 6.76682 39007 ft 513 kts 161°
2026-05-05 15:06 73.31572 6.83799 39009 ft 513 kts 162°
2026-05-05 15:06 73.24732 6.90873 39005 ft 512 kts 162°
2026-05-05 15:07 73.17906 6.97859 39007 ft 512 kts 161°
2026-05-05 15:07 73.11070 7.04811 39003 ft 513 kts 162°
2026-05-05 15:08 73.04208 7.11734 38991 ft 514 kts 162°
2026-05-05 15:08 72.97356 7.18620 38994 ft 513 kts 162°
2026-05-05 15:09 72.90525 7.25384 38982 ft 511 kts 162°
2026-05-05 15:09 72.83680 7.32091 38980 ft 512 kts 162°
2026-05-05 15:10 72.76818 7.38778 38978 ft 514 kts 162°
2026-05-05 15:10 72.69964 7.45441 38968 ft 512 kts 162°
2026-05-05 15:11 72.63131 7.52013 38964 ft 510 kts 162°
2026-05-05 15:11 72.56299 7.58500 38963 ft 511 kts 162°
2026-05-05 15:12 72.49442 7.64971 38957 ft 513 kts 162°
2026-05-05 15:12 72.42634 7.71369 38962 ft 512 kts 163°
2026-05-05 15:13 72.35783 7.77753 38941 ft 511 kts 163°
2026-05-05 15:13 72.28939 7.84059 38940 ft 511 kts 162°
2026-05-05 15:14 72.22083 7.90341 38937 ft 513 kts 162°
2026-05-05 15:14 72.15209 7.96586 38939 ft 512 kts 162°
2026-05-05 15:15 72.08352 8.02782 38935 ft 510 kts 163°
2026-05-05 15:15 72.01500 8.08922 38924 ft 512 kts 163°
2026-05-05 15:16 71.94629 8.15051 38922 ft 513 kts 163°
2026-05-05 15:16 71.87747 8.21121 38921 ft 512 kts 163°
2026-05-05 15:17 71.80876 8.27112 38912 ft 511 kts 164°
2026-05-05 15:17 71.74022 8.33061 38910 ft 511 kts 163°
2026-05-05 15:18 71.67148 8.38992 38898 ft 513 kts 163°
2026-05-05 15:18 71.60250 8.44878 38893 ft 512 kts 163°
2026-05-05 15:19 71.53364 8.50715 38896 ft 512 kts 164°
2026-05-05 15:19 71.46492 8.56509 38888 ft 512 kts 163°
2026-05-05 15:20 71.39608 8.62280 38883 ft 513 kts 163°
2026-05-05 15:20 71.32700 8.68010 38867 ft 513 kts 164°
2026-05-05 15:21 71.25808 8.73687 38867 ft 511 kts 164°
2026-05-05 15:21 71.18937 8.79325 38867 ft 511 kts 164°
2026-05-05 15:22 71.12096 8.84874 38867 ft 512 kts 164°
2026-05-05 15:22 71.05190 8.90432 38859 ft 513 kts 164°
2026-05-05 15:23 70.98294 8.95976 38852 ft 511 kts 165°
2026-05-05 15:23 70.91420 9.01435 38843 ft 511 kts 164°
2026-05-05 15:24 70.84534 9.06857 38843 ft 512 kts 164°
2026-05-05 15:24 70.78794 9.11372 38841 ft 513 kts 165°
2026-05-05 15:25 70.71894 9.16737 38838 ft 512 kts 165°
2026-05-05 15:25 70.65005 9.22052 38827 ft 510 kts 164°
2026-05-05 15:26 70.58068 9.27375 38825 ft 511 kts 165°
2026-05-05 15:26 70.51202 9.32611 38824 ft 513 kts 165°
2026-05-05 15:27 70.44293 9.37844 38819 ft 512 kts 165°
2026-05-05 15:27 70.37408 9.43019 38817 ft 510 kts 165°
2026-05-05 15:28 70.30514 9.48168 38800 ft 511 kts 165°
2026-05-05 15:28 70.23609 9.53300 38803 ft 513 kts 165°
2026-05-05 15:29 70.16701 9.58386 38796 ft 511 kts 165°
2026-05-05 15:29 70.09810 9.63419 38792 ft 509 kts 165°
2026-05-05 15:30 70.02923 9.68418 38787 ft 510 kts 165°
2026-05-05 15:30 69.96006 9.73408 38777 ft 512 kts 165°
2026-05-05 15:31 69.89093 9.78371 38772 ft 512 kts 166°
2026-05-05 15:31 69.82192 9.83283 38770 ft 509 kts 166°
2026-05-05 15:32 69.75296 9.88152 38765 ft 511 kts 166°
2026-05-05 15:32 69.68384 9.93003 38765 ft 513 kts 166°
2026-05-05 15:33 69.61464 9.97829 38759 ft 511 kts 166°
2026-05-05 15:33 69.54565 10.02611 38761 ft 509 kts 166°
2026-05-05 15:34 69.47674 10.07379 38756 ft 510 kts 166°
2026-05-05 15:34 69.40763 10.12094 38758 ft 511 kts 166°
2026-05-05 15:35 69.33849 10.16777 38758 ft 511 kts 166°
2026-05-05 15:35 69.26954 10.21425 38739 ft 508 kts 167°
2026-05-05 15:36 69.20121 10.26007 38734 ft 509 kts 167°
2026-05-05 15:36 69.13217 10.30618 38736 ft 511 kts 167°
2026-05-05 15:37 69.06309 10.35183 38738 ft 510 kts 167°
2026-05-05 15:37 68.99411 10.39712 38735 ft 508 kts 167°
2026-05-05 15:38 68.92524 10.44209 38722 ft 509 kts 167°
2026-05-05 15:38 68.85616 10.48693 38722 ft 511 kts 167°
2026-05-05 15:39 68.78702 10.53175 38725 ft 510 kts 167°
2026-05-05 15:39 68.71805 10.57602 38724 ft 508 kts 167°
2026-05-05 15:40 68.64908 10.61975 38713 ft 509 kts 167°
2026-05-05 15:40 68.57996 10.66338 38714 ft 511 kts 167°
2026-05-05 15:41 68.51080 10.70685 38708 ft 510 kts 168°
2026-05-05 15:41 68.44179 10.75016 38713 ft 507 kts 168°
2026-05-05 15:42 68.37292 10.79289 38713 ft 508 kts 168°
2026-05-05 15:42 68.30393 10.83536 38705 ft 509 kts 168°
2026-05-05 15:43 68.23489 10.87765 38702 ft 508 kts 168°
2026-05-05 15:43 68.16597 10.91965 38692 ft 507 kts 168°
2026-05-05 15:44 68.09714 10.96135 38699 ft 507 kts 168°
2026-05-05 15:44 68.02794 10.99917 38701 ft 508 kts 171°
2026-05-05 15:45 67.95846 11.03276 38688 ft 507 kts 171°
2026-05-05 15:45 67.88907 11.06641 38689 ft 506 kts 171°
2026-05-05 15:46 67.81975 11.10061 38690 ft 507 kts 171°
2026-05-05 15:46 67.75077 11.13475 38687 ft 507 kts 171°
2026-05-05 15:47 67.68141 11.16912 38687 ft 506 kts 170°
2026-05-05 15:47 67.61217 11.20307 38676 ft 507 kts 171°
2026-05-05 15:48 67.54291 11.23675 38675 ft 506 kts 171°
2026-05-05 15:48 67.47367 11.27015 38672 ft 505 kts 171°
2026-05-05 15:49 67.40457 11.30338 38673 ft 504 kts 171°
2026-05-05 15:49 67.33549 11.33637 38674 ft 505 kts 172°
2026-05-05 15:50 67.26634 11.36912 38671 ft 506 kts 171°
2026-05-05 15:50 67.19712 11.40170 38657 ft 505 kts 171°
2026-05-05 15:51 67.12803 11.43431 38646 ft 505 kts 171°
2026-05-05 15:51 67.05879 11.46671 38655 ft 506 kts 172°
2026-05-05 15:52 66.98955 11.49884 38653 ft 506 kts 172°
2026-05-05 15:52 66.92024 11.53056 38653 ft 505 kts 171°
2026-05-05 15:53 66.85112 11.56217 38643 ft 505 kts 171°
2026-05-05 15:53 66.78188 11.59381 38632 ft 506 kts 172°
2026-05-05 15:54 66.71267 11.62518 38645 ft 505 kts 171°
2026-05-05 15:54 66.64367 11.65644 38646 ft 503 kts 171°
2026-05-05 15:55 66.57525 11.68692 38650 ft 503 kts 172°
2026-05-05 15:55 66.50641 11.71743 38642 ft 503 kts 171°
2026-05-05 15:56 66.43752 11.74790 38639 ft 503 kts 172°
2026-05-05 15:56 66.36859 11.77827 38646 ft 503 kts 172°
2026-05-05 15:57 66.29959 11.80851 38660 ft 504 kts 172°
2026-05-05 15:57 66.23048 11.83738 38662 ft 502 kts 176°
2026-05-05 15:58 66.16087 11.84606 38675 ft 501 kts 181°
2026-05-05 15:58 66.09125 11.84861 38677 ft 500 kts 183°
2026-05-05 15:59 66.02166 11.85026 38691 ft 500 kts 181°
2026-05-05 15:59 65.95212 11.85241 38691 ft 500 kts 182°
2026-05-05 16:00 65.88253 11.85465 38711 ft 500 kts 182°
2026-05-05 16:00 65.81293 11.85698 38708 ft 500 kts 182°
2026-05-05 16:01 65.74337 11.85929 38725 ft 500 kts 182°
2026-05-05 16:01 65.67376 11.86152 38724 ft 500 kts 181°
2026-05-05 16:02 65.60418 11.86367 38747 ft 500 kts 182°
2026-05-05 16:02 65.53457 11.86589 38743 ft 500 kts 181°
2026-05-05 16:03 65.46501 11.86815 38741 ft 500 kts 181°
2026-05-05 16:03 65.39546 11.87040 38765 ft 500 kts 182°
2026-05-05 16:04 65.32587 11.87262 38768 ft 500 kts 182°
2026-05-05 16:04 65.25628 11.87484 38777 ft 500 kts 182°
2026-05-05 16:05 65.18673 11.87705 38778 ft 500 kts 182°
2026-05-05 16:05 65.11714 11.87924 38785 ft 500 kts 182°
2026-05-05 16:06 65.04752 11.88143 38786 ft 500 kts 182°
2026-05-05 16:06 64.97792 11.88340 38801 ft 500 kts 182°
2026-05-05 16:07 64.90840 11.88050 38793 ft 499 kts 184°
2026-05-05 16:07 64.83894 11.87567 38810 ft 499 kts 184°
2026-05-05 16:08 64.76994 11.87153 38804 ft 500 kts 184°
2026-05-05 16:08 64.70043 11.86797 38813 ft 500 kts 184°
2026-05-05 16:09 64.63091 11.86462 38830 ft 500 kts 184°
2026-05-05 16:09 64.56134 11.86128 38830 ft 500 kts 184°
2026-05-05 16:10 64.49182 11.85793 38815 ft 500 kts 184°
2026-05-05 16:10 64.42229 11.85459 38818 ft 500 kts 184°
2026-05-05 16:11 64.35277 11.85126 38833 ft 500 kts 184°
2026-05-05 16:12 64.21370 11.84466 38840 ft 500 kts 184°
2026-05-05 16:13 64.05165 11.83702 38834 ft 500 kts 184°
2026-05-05 16:13 63.98213 11.83378 38850 ft 500 kts 184°
2026-05-05 16:14 63.84341 11.82738 38852 ft 498 kts 184°
2026-05-05 16:15 63.70488 11.82102 38867 ft 498 kts 184°
2026-05-05 16:16 63.56641 11.81474 38870 ft 498 kts 184°
2026-05-05 16:17 63.46256 11.81008 38875 ft 497 kts 184°
2026-05-05 16:18 63.35878 11.80543 38954 ft 498 kts 184°
2026-05-05 16:18 63.28957 11.80293 39267 ft 497 kts 184°
2026-05-05 16:19 63.25500 11.80215 39402 ft 497 kts 184°
2026-05-05 16:19 63.22044 11.80143 39516 ft 497 kts 184°
2026-05-05 16:19 63.15124 11.79992 39762 ft 497 kts 184°
2026-05-05 16:20 63.08214 11.79828 40008 ft 497 kts 184°
2026-05-05 16:20 63.01300 11.79655 40241 ft 497 kts 184°
2026-05-05 16:21 62.94391 11.79483 40467 ft 496 kts 184°
2026-05-05 16:22 62.84028 11.79227 40721 ft 497 kts 184°
2026-05-05 16:22 62.77116 11.79056 40848 ft 497 kts 184°
2026-05-05 16:23 62.70250 11.78888 40843 ft 497 kts 184°
2026-05-05 16:23 62.59888 11.78637 40839 ft 496 kts 184°
2026-05-05 16:24 62.52987 11.78472 40886 ft 496 kts 184°
2026-05-05 16:25 62.42638 11.78222 40875 ft 496 kts 184°
2026-05-05 16:25 62.32290 11.77975 40852 ft 495 kts 185°
2026-05-05 16:26 62.18521 11.77649 40872 ft 494 kts 185°
2026-05-05 16:27 62.11643 11.77487 40871 ft 494 kts 185°
2026-05-05 16:27 62.04762 11.77326 40873 ft 494 kts 185°
2026-05-05 16:28 61.97886 11.77166 40866 ft 494 kts 185°
2026-05-05 16:28 61.91014 11.77007 40867 ft 494 kts 185°
2026-05-05 16:29 61.84144 11.76848 40862 ft 494 kts 185°
2026-05-05 16:29 61.77277 11.76689 40860 ft 494 kts 185°
2026-05-05 16:30 61.70410 11.76532 40842 ft 493 kts 185°
2026-05-05 16:30 61.63545 11.76376 40857 ft 493 kts 185°
2026-05-05 16:31 61.56682 11.76220 40856 ft 493 kts 185°
2026-05-05 16:31 61.49821 11.76065 40854 ft 493 kts 185°
2026-05-05 16:32 61.42960 11.75911 40854 ft 493 kts 185°
2026-05-05 16:32 61.36098 11.75757 40851 ft 492 kts 185°
2026-05-05 16:33 61.29293 11.75606 40854 ft 492 kts 185°
2026-05-05 16:33 61.22449 11.75454 40853 ft 492 kts 185°
2026-05-05 16:34 61.15604 11.75303 40857 ft 492 kts 185°
2026-05-05 16:34 61.08760 11.75153 40856 ft 492 kts 185°
2026-05-05 16:35 61.01916 11.75003 40857 ft 492 kts 185°
2026-05-05 16:35 60.95077 11.74854 40857 ft 492 kts 185°
2026-05-05 16:36 60.88225 11.74704 40846 ft 492 kts 185°
2026-05-05 16:36 60.81382 11.74561 40830 ft 492 kts 185°
2026-05-05 16:37 60.74539 11.74808 40857 ft 491 kts 183°
2026-05-05 16:37 60.67716 11.75275 40861 ft 490 kts 183°
2026-05-05 16:38 60.60898 11.75696 40856 ft 490 kts 183°
2026-05-05 16:38 60.54082 11.76062 40860 ft 490 kts 184°
2026-05-05 16:39 60.47267 11.76407 40862 ft 489 kts 184°
2026-05-05 16:39 60.40474 11.76748 40863 ft 488 kts 184°
2026-05-05 16:40 60.33635 11.77089 40866 ft 488 kts 184°
2026-05-05 16:40 60.26846 11.77428 40867 ft 488 kts 184°
2026-05-05 16:41 60.20100 11.77766 40854 ft 488 kts 184°
2026-05-05 16:41 60.13316 11.78105 40864 ft 487 kts 184°
2026-05-05 16:42 60.06543 11.78441 40865 ft 487 kts 184°
2026-05-05 16:42 59.99771 11.78774 40868 ft 487 kts 184°
2026-05-05 16:43 59.93005 11.79108 40833 ft 483 kts 184°
2026-05-05 16:43 59.86354 11.79445 40875 ft 474 kts 184°
2026-05-05 16:44 59.79767 11.79764 40876 ft 473 kts 184°
2026-05-05 16:44 59.73178 11.80077 40883 ft 474 kts 184°
2026-05-05 16:45 59.66589 11.80393 40883 ft 473 kts 184°
2026-05-05 16:45 59.60003 11.80711 40874 ft 473 kts 184°
2026-05-05 16:46 59.53433 11.81029 40881 ft 472 kts 184°
2026-05-05 16:46 59.46874 11.81343 40892 ft 471 kts 184°
2026-05-05 16:47 59.40313 11.81655 40901 ft 471 kts 184°
2026-05-05 16:47 59.33758 11.81962 40878 ft 471 kts 184°
2026-05-05 16:48 59.27298 11.81423 40907 ft 467 kts 189°
2026-05-05 16:48 59.20825 11.80497 40908 ft 466 kts 189°
2026-05-05 16:49 59.14355 11.79510 40915 ft 466 kts 189°
2026-05-05 16:49 59.07888 11.78540 40915 ft 466 kts 189°
2026-05-05 16:50 59.01421 11.77589 40916 ft 466 kts 189°
2026-05-05 16:50 58.94964 11.76649 40920 ft 465 kts 189°
2026-05-05 16:51 58.88511 11.75712 40928 ft 465 kts 189°
2026-05-05 16:51 58.82057 11.74778 40924 ft 465 kts 189°
2026-05-05 16:52 58.75601 11.73847 40926 ft 465 kts 189°
2026-05-05 16:52 58.69148 11.72921 40931 ft 465 kts 189°
2026-05-05 16:53 58.62688 11.71996 40934 ft 465 kts 189°
2026-05-05 16:53 58.56227 11.71074 40936 ft 466 kts 189°
2026-05-05 16:54 58.49766 11.70157 40916 ft 465 kts 189°
2026-05-05 16:54 58.43307 11.69243 40935 ft 466 kts 189°
2026-05-05 16:55 58.36843 11.68332 40936 ft 466 kts 189°
2026-05-05 16:55 58.30381 11.67424 40935 ft 466 kts 189°
2026-05-05 16:56 58.23920 11.66519 40942 ft 466 kts 189°
2026-05-05 16:56 58.17410 11.65607 40937 ft 472 kts 189°
2026-05-05 16:57 58.10813 11.64687 40939 ft 478 kts 189°
2026-05-05 16:57 58.04162 11.63768 40942 ft 479 kts 189°
2026-05-05 16:58 57.98633 11.63008 40941 ft 479 kts 189°
2026-05-05 16:58 57.91985 11.62098 40933 ft 479 kts 189°
2026-05-05 16:59 57.85341 11.61190 40940 ft 478 kts 189°
2026-05-05 16:59 57.78705 11.60284 40940 ft 478 kts 189°
2026-05-05 17:00 57.72074 11.59382 40942 ft 478 kts 189°
2026-05-05 17:00 57.65440 11.58484 40936 ft 478 kts 189°
2026-05-05 17:01 57.58811 11.57590 40951 ft 477 kts 189°
2026-05-05 17:01 57.52192 11.56700 40953 ft 477 kts 189°
2026-05-05 17:02 57.45574 11.55813 40959 ft 477 kts 189°
2026-05-05 17:02 57.38953 11.54929 40936 ft 477 kts 189°
2026-05-05 17:03 57.32333 11.54048 40953 ft 477 kts 188°
2026-05-05 17:03 57.25710 11.53171 40959 ft 477 kts 188°
2026-05-05 17:04 57.19085 11.52296 40958 ft 477 kts 188°
2026-05-05 17:04 57.12462 11.51425 40956 ft 477 kts 188°
2026-05-05 17:05 57.05834 11.50555 40959 ft 478 kts 188°
2026-05-05 17:05 56.99206 11.49690 40959 ft 478 kts 188°
2026-05-05 17:06 56.92574 11.48826 40956 ft 478 kts 188°
2026-05-05 17:06 56.85941 11.47966 40957 ft 478 kts 188°
2026-05-05 17:07 56.79313 11.47110 40957 ft 477 kts 188°
2026-05-05 17:07 56.72690 11.46257 40958 ft 477 kts 188°
2026-05-05 17:08 56.66064 11.45406 40955 ft 477 kts 188°
2026-05-05 17:08 56.59444 11.44560 40955 ft 477 kts 188°
2026-05-05 17:09 56.52823 11.43716 40953 ft 477 kts 188°
2026-05-05 17:09 56.46210 11.42876 40952 ft 476 kts 188°
2026-05-05 17:10 56.39598 11.42039 40948 ft 476 kts 188°
2026-05-05 17:10 56.32987 11.41206 40955 ft 476 kts 188°
2026-05-05 17:11 56.26379 11.40375 40949 ft 475 kts 188°
2026-05-05 17:11 56.19782 11.39550 40951 ft 475 kts 188°
2026-05-05 17:12 56.13187 11.38726 40948 ft 475 kts 188°
2026-05-05 17:12 56.06594 11.37906 40949 ft 475 kts 188°
2026-05-05 17:13 56.00004 11.37089 40940 ft 475 kts 188°
2026-05-05 17:13 55.93460 11.36281 40933 ft 475 kts 188°
2026-05-05 17:14 55.86874 11.35470 40945 ft 474 kts 188°
2026-05-05 17:14 55.80294 11.34663 40947 ft 474 kts 188°
2026-05-05 17:15 55.73718 11.33859 40937 ft 474 kts 188°
2026-05-05 17:15 55.67141 11.33057 40942 ft 474 kts 188°
2026-05-05 17:16 55.60568 11.32258 40944 ft 474 kts 188°
2026-05-05 17:16 55.53990 11.31462 40938 ft 474 kts 188°
2026-05-05 17:17 55.47413 11.30668 40938 ft 474 kts 188°
2026-05-05 17:17 55.40839 11.29878 40934 ft 474 kts 188°
2026-05-05 17:18 55.34262 11.29090 40932 ft 474 kts 188°
2026-05-05 17:18 55.27689 11.28305 40934 ft 474 kts 188°
2026-05-05 17:19 55.21110 11.27522 40928 ft 474 kts 188°
2026-05-05 17:19 55.14533 11.26741 40926 ft 474 kts 187°
2026-05-05 17:20 55.07955 11.25963 40927 ft 474 kts 187°
2026-05-05 17:20 55.01424 11.25194 40924 ft 474 kts 187°
2026-05-05 17:21 54.94847 11.24421 40914 ft 474 kts 187°
2026-05-05 17:22 54.84985 11.23267 40923 ft 474 kts 187°
2026-05-05 17:22 54.78410 11.22501 40918 ft 474 kts 187°
2026-05-05 17:23 54.71835 11.21738 40923 ft 474 kts 187°
2026-05-05 17:23 54.65264 11.20977 40917 ft 473 kts 187°
2026-05-05 17:24 54.58679 11.20412 40931 ft 476 kts 183°
2026-05-05 17:24 54.52058 11.20648 40916 ft 476 kts 182°
2026-05-05 17:25 54.45430 11.21045 40922 ft 476 kts 182°
2026-05-05 17:25 54.38812 11.21458 40922 ft 476 kts 182°
2026-05-05 17:26 54.32202 11.21853 40918 ft 476 kts 182°
2026-05-05 17:26 54.25585 11.22237 40914 ft 476 kts 182°
2026-05-05 17:27 54.19016 11.22614 40916 ft 475 kts 182°
2026-05-05 17:27 54.12418 11.22992 40914 ft 474 kts 182°
2026-05-05 17:28 54.05828 11.23369 40911 ft 474 kts 182°
2026-05-05 17:28 53.99237 11.23744 40908 ft 474 kts 182°
2026-05-05 17:29 53.92651 11.24119 40910 ft 473 kts 182°
2026-05-05 17:29 53.86077 11.24492 40909 ft 472 kts 182°
2026-05-05 17:30 53.79506 11.24864 40903 ft 472 kts 182°
2026-05-05 17:30 53.72936 11.25234 40901 ft 472 kts 182°
2026-05-05 17:31 53.66365 11.25602 40900 ft 473 kts 181°
2026-05-05 17:31 53.59738 11.25972 40897 ft 473 kts 181°
2026-05-05 17:32 53.53196 11.26338 40895 ft 474 kts 181°
2026-05-05 17:32 53.46606 11.26704 40889 ft 474 kts 181°
2026-05-05 17:33 53.40018 11.27070 40884 ft 474 kts 181°
2026-05-05 17:33 53.33423 11.27435 40884 ft 474 kts 181°
2026-05-05 17:34 53.26827 11.27798 40881 ft 474 kts 181°
2026-05-05 17:34 53.20233 11.28161 40866 ft 474 kts 181°
2026-05-05 17:35 53.13646 11.28522 40870 ft 473 kts 182°
2026-05-05 17:35 53.07060 11.28897 40873 ft 473 kts 181°
2026-05-05 17:36 53.00476 11.29305 40868 ft 474 kts 181°
2026-05-05 17:36 52.93891 11.29714 40865 ft 473 kts 181°
2026-05-05 17:37 52.87307 11.30117 40863 ft 473 kts 181°
2026-05-05 17:37 52.80722 11.30516 40864 ft 474 kts 181°
2026-05-05 17:38 52.74135 11.30913 40866 ft 474 kts 181°
2026-05-05 17:38 52.67548 11.31308 40859 ft 473 kts 181°
2026-05-05 17:39 52.60976 11.31703 40856 ft 472 kts 181°
2026-05-05 17:39 52.54408 11.32095 40851 ft 472 kts 181°
2026-05-05 17:40 52.47840 11.32487 40852 ft 472 kts 181°
2026-05-05 17:40 52.41280 11.32877 40846 ft 471 kts 181°
2026-05-05 17:41 52.34734 11.33265 40848 ft 470 kts 181°
2026-05-05 17:41 52.28195 11.33651 40843 ft 470 kts 181°
2026-05-05 17:42 52.21648 11.34037 40825 ft 470 kts 181°
2026-05-05 17:42 52.15116 11.34421 40837 ft 469 kts 181°
2026-05-05 17:43 52.08602 11.34802 40831 ft 468 kts 181°
2026-05-05 17:43 52.02103 11.35942 40842 ft 471 kts 175°
2026-05-05 17:44 51.95623 11.37621 40829 ft 472 kts 174°
2026-05-05 17:44 51.90242 11.39084 40831 ft 471 kts 173°
2026-05-05 17:45 51.83774 11.40834 40828 ft 471 kts 174°
2026-05-05 17:45 51.77305 11.42561 40832 ft 471 kts 174°
2026-05-05 17:46 51.70830 11.44275 40822 ft 471 kts 174°
2026-05-05 17:46 51.64367 11.45981 40823 ft 470 kts 174°
2026-05-05 17:47 51.57908 11.47682 40811 ft 470 kts 174°
2026-05-05 17:47 51.51449 11.49377 40806 ft 470 kts 174°
2026-05-05 17:48 51.44998 11.51067 40812 ft 470 kts 173°
2026-05-05 17:48 51.38595 11.52739 40808 ft 469 kts 173°
2026-05-05 17:49 51.32155 11.54415 40798 ft 469 kts 174°
2026-05-05 17:49 51.25706 11.56090 40799 ft 469 kts 174°
2026-05-05 17:50 51.19259 11.57758 40798 ft 469 kts 174°
2026-05-05 17:50 51.12969 11.59382 40796 ft 469 kts 174°
2026-05-05 17:51 51.07262 11.60851 40793 ft 469 kts 174°
2026-05-05 17:51 51.00814 11.62507 40779 ft 469 kts 174°
2026-05-05 17:52 50.94376 11.64156 40778 ft 468 kts 174°
2026-05-05 17:52 50.87940 11.65799 40778 ft 468 kts 174°
2026-05-05 17:53 50.81510 11.67436 40771 ft 468 kts 174°
2026-05-05 17:53 50.75082 11.69069 40760 ft 468 kts 174°
2026-05-05 17:54 50.68714 11.71280 40758 ft 470 kts 166°
2026-05-05 17:54 50.62475 11.74382 40755 ft 471 kts 165°
2026-05-05 17:55 50.56253 11.77632 40761 ft 471 kts 165°
2026-05-05 17:55 50.50027 11.80880 40764 ft 471 kts 165°
2026-05-05 17:56 50.43878 11.84501 40764 ft 473 kts 161°
2026-05-05 17:56 50.37819 11.88544 40773 ft 473 kts 160°
2026-05-05 17:57 50.31771 11.92651 40776 ft 474 kts 160°
2026-05-05 17:57 50.25765 11.96717 40763 ft 474 kts 160°
2026-05-05 17:58 50.19727 12.00796 40746 ft 472 kts 160°
2026-05-05 17:58 50.13691 12.04844 40683 ft 474 kts 160°
2026-05-05 17:58 50.10663 12.06869 40256 ft 474 kts 160°
2026-05-05 17:59 50.07636 12.08892 39661 ft 473 kts 160°
2026-05-05 17:59 50.04622 12.10906 39072 ft 470 kts 160°
2026-05-05 17:59 50.01622 12.12907 38494 ft 468 kts 160°
2026-05-05 17:59 49.98639 12.14891 37790 ft 466 kts 160°
2026-05-05 18:00 49.95665 12.16866 37095 ft 464 kts 160°
2026-05-05 18:00 49.92701 12.18831 36424 ft 463 kts 159°
2026-05-05 18:00 49.89738 12.20793 35773 ft 464 kts 159°
2026-05-05 18:00 49.86762 12.22760 35145 ft 466 kts 159°
2026-05-05 18:01 49.83777 12.24731 34530 ft 466 kts 159°
2026-05-05 18:01 49.80797 12.26702 33925 ft 464 kts 158°
2026-05-05 18:01 49.77837 12.28658 33249 ft 462 kts 158°
2026-05-05 18:01 49.74888 12.30608 32573 ft 459 kts 159°
2026-05-05 18:02 49.72062 12.32889 31915 ft 459 kts 150°
2026-05-05 18:02 49.69428 12.35664 31281 ft 457 kts 147°
2026-05-05 18:02 49.66866 12.38543 30649 ft 455 kts 146°
2026-05-05 18:02 49.64341 12.41470 30034 ft 453 kts 145°
2026-05-05 18:03 49.61843 12.44404 29369 ft 450 kts 145°
2026-05-05 18:03 49.59358 12.47331 28671 ft 448 kts 145°
2026-05-05 18:03 49.56888 12.50232 27987 ft 446 kts 145°
2026-05-05 18:03 49.54424 12.53112 27317 ft 443 kts 145°
2026-05-05 18:04 49.51988 12.55950 26926 ft 435 kts 145°
2026-05-05 18:04 49.49584 12.58742 26316 ft 432 kts 145°
2026-05-05 18:04 49.47200 12.61506 25754 ft 427 kts 145°
2026-05-05 18:04 49.44802 12.64130 25437 ft 416 kts 150°
2026-05-05 18:05 49.42291 12.66196 25074 ft 406 kts 158°
2026-05-05 18:05 49.39616 12.67552 24428 ft 404 kts 169°
2026-05-05 18:05 49.36883 12.68032 24162 ft 392 kts 179°
2026-05-05 18:05 49.34161 12.67688 23453 ft 394 kts 192°
2026-05-05 18:06 49.31531 12.66531 22833 ft 392 kts 198°
2026-05-05 18:06 49.29836 12.65600 22500 ft 389 kts 200°
2026-05-05 18:06 49.26514 12.63564 21902 ft 381 kts 201°
2026-05-05 18:06 49.24089 12.62013 21449 ft 375 kts 202°
2026-05-05 18:07 49.21703 12.60492 21009 ft 369 kts 201°
2026-05-05 18:07 49.19345 12.59014 20560 ft 364 kts 201°
2026-05-05 18:07 49.17012 12.57576 20145 ft 360 kts 201°
2026-05-05 18:07 49.14700 12.56169 19712 ft 356 kts 201°
2026-05-05 18:08 49.12407 12.54786 19272 ft 352 kts 201°
2026-05-05 18:08 49.10137 12.53423 18873 ft 349 kts 201°
2026-05-05 18:08 49.07886 12.52074 18451 ft 347 kts 201°
2026-05-05 18:08 49.05647 12.50734 18019 ft 344 kts 201°
2026-05-05 18:09 49.03427 12.49406 17565 ft 341 kts 201°
2026-05-05 18:09 49.01226 12.48089 17166 ft 338 kts 201°
2026-05-05 18:09 48.99030 12.46775 16694 ft 343 kts 201°
2026-05-05 18:09 48.96791 12.45437 16130 ft 347 kts 201°
2026-05-05 18:10 48.94540 12.44092 15519 ft 348 kts 202°
2026-05-05 18:10 48.92319 12.42768 14913 ft 348 kts 202°
2026-05-05 18:10 48.90066 12.41426 14289 ft 347 kts 202°
2026-05-05 18:10 48.87818 12.40088 13668 ft 347 kts 202°
2026-05-05 18:11 48.85575 12.38754 12987 ft 346 kts 202°
2026-05-05 18:11 48.83337 12.37427 12311 ft 345 kts 202°
2026-05-05 18:11 48.81107 12.36110 11646 ft 343 kts 202°
2026-05-05 18:11 48.78861 12.34938 11099 ft 339 kts 198°
2026-05-05 18:12 48.76628 12.33968 10847 ft 327 kts 197°
2026-05-05 18:12 48.74481 12.33095 10796 ft 311 kts 197°
2026-05-05 18:12 48.72444 12.32328 10789 ft 293 kts 193°
2026-05-05 18:12 48.70473 12.31989 10796 ft 280 kts 186°
2026-05-05 18:13 48.68531 12.31888 10806 ft 279 kts 184°
2026-05-05 18:13 48.66590 12.31818 10806 ft 279 kts 184°
2026-05-05 18:13 48.64651 12.31750 10807 ft 279 kts 184°
2026-05-05 18:13 48.62713 12.31677 10804 ft 279 kts 184°
2026-05-05 18:14 48.60765 12.31588 10731 ft 281 kts 184°
2026-05-05 18:14 48.58815 12.31496 10454 ft 280 kts 184°
2026-05-05 18:14 48.56874 12.31407 10103 ft 278 kts 184°
2026-05-05 18:14 48.54946 12.31326 9741 ft 276 kts 184°
2026-05-05 18:15 48.53042 12.31251 9372 ft 271 kts 184°
2026-05-05 18:15 48.51178 12.31177 9100 ft 264 kts 184°
2026-05-05 18:15 48.49365 12.31108 8842 ft 257 kts 184°
2026-05-05 18:15 48.47599 12.31043 8582 ft 251 kts 184°
2026-05-05 18:16 48.45873 12.30975 8327 ft 245 kts 184°
2026-05-05 18:16 48.44201 12.30881 8142 ft 236 kts 188°
2026-05-05 18:16 48.42656 12.30304 7997 ft 223 kts 202°
2026-05-05 18:16 48.41383 12.29104 7790 ft 213 kts 226°
2026-05-05 18:17 48.40458 12.27402 7638 ft 208 kts 233°
2026-05-05 18:17 48.39612 12.25644 7442 ft 208 kts 234°
2026-05-05 18:17 48.38771 12.23874 7210 ft 208 kts 234°
2026-05-05 18:17 48.38067 12.21968 6961 ft 209 kts 246°
2026-05-05 18:18 48.37629 12.19883 6710 ft 210 kts 256°
2026-05-05 18:18 48.37369 12.17720 6406 ft 209 kts 260°
2026-05-05 18:18 48.37188 12.15556 6083 ft 208 kts 262°
2026-05-05 18:18 48.37012 12.13408 5754 ft 207 kts 262°
2026-05-05 18:19 48.36839 12.11264 5469 ft 206 kts 263°
2026-05-05 18:19 48.36676 12.09126 5203 ft 205 kts 264°
2026-05-05 18:19 48.36506 12.07015 5024 ft 203 kts 262°
2026-05-05 18:19 48.36360 12.04917 4728 ft 200 kts 265°
2026-05-05 18:20 48.36204 12.02856 4411 ft 196 kts 264°
2026-05-05 18:20 48.36040 12.00847 4133 ft 191 kts 265°
2026-05-05 18:20 48.35891 11.98898 3887 ft 185 kts 265°
2026-05-05 18:20 48.35745 11.97005 3636 ft 179 kts 265°
2026-05-05 18:21 48.35605 11.95181 3412 ft 172 kts 266°
2026-05-05 18:21 48.35472 11.93443 3193 ft 162 kts 266°
2026-05-05 18:21 48.35346 11.91817 2986 ft 152 kts 266°
2026-05-05 18:21 48.35229 11.90291 2781 ft 142 kts 266°
2026-05-05 18:22 48.35120 11.88857 2595 ft 137 kts 266°
2026-05-05 18:22 48.35013 11.87432 2418 ft 139 kts 266°
2026-05-05 18:22 48.34902 11.85991 2220 ft 138 kts 265°
2026-05-05 18:22 48.34797 11.84560 2041 ft 138 kts 263°
2026-05-05 18:23 48.34678 11.83104 1874 ft 142 kts 264°
2026-05-05 18:23 48.34572 11.81649 1676 ft 141 kts 264°
2026-05-05 18:23 48.34459 11.80196 1510 ft 139 kts 265°
2026-05-05 18:23 48.34358 11.78854 1483 ft 109 kts 263°
2026-05-05 18:24 48.34292 11.77994 1477 ft 57 kts 263°
2026-05-05 18:24 48.34256 11.77528 1484 ft 38 kts 264°
2026-05-05 18:24 48.34284 11.77179 1485 ft 26 kts 290°
2026-05-05 18:24 48.34349 11.76945 1483 ft 23 kts 293°
2026-05-05 18:25 48.34379 11.76842 1477 ft 8 kts 294°
2026-05-05 18:25 48.34386 11.76815 1484 ft 7 kts 294°
2026-05-05 18:25 48.34415 11.76745 1478 ft 8 kts 313°
2026-05-05 18:25 48.34485 11.76701 1480 ft 14 kts 352°
2026-05-05 18:26 48.34566 11.76728 1476 ft 12 kts 58°
2026-05-05 18:26 48.34584 11.76865 1481 ft 15 kts 84°
2026-05-05 18:26 48.34598 11.77057 1486 ft 20 kts 84°
2026-05-05 18:26 48.34615 11.77274 1486 ft 20 kts 83°
2026-05-05 18:27 48.34632 11.77491 1484 ft 22 kts 83°
2026-05-05 18:27 48.34649 11.77720 1481 ft 20 kts 83°
2026-05-05 18:27 48.34666 11.77936 1487 ft 22 kts 83°
2026-05-05 18:27 48.34683 11.78157 1478 ft 23 kts 83°
2026-05-05 18:28 48.34716 11.78585 1479 ft 22 kts 83°
2026-05-05 18:28 48.34734 11.78820 1484 ft 23 kts 83°
2026-05-05 18:28 48.34752 11.79055 1477 ft 21 kts 83°
2026-05-05 18:29 48.34769 11.79271 1479 ft 20 kts 83°
2026-05-05 18:29 48.34783 11.79462 1478 ft 15 kts 83°
2026-05-05 18:29 48.34795 11.79620 1479 ft 14 kts 83°
2026-05-05 18:29 48.34856 11.79692 1478 ft 13 kts 359°
2026-05-05 18:30 48.34952 11.79677 1480 ft 15 kts 354°
2026-05-05 18:30 48.35055 11.79663 1479 ft 13 kts
2026-05-05 18:30 48.35106 11.79761 1484 ft 14 kts 81°
2026-05-05 18:30 48.35117 11.79917 1483 ft 16 kts 83°
2026-05-05 18:31 48.35130 11.80085 1476 ft 10 kts 83°
2026-05-05 18:31 48.35159 11.80179 1482 ft 10 kts 31°
2026-05-05 18:31 48.35235 11.80181 1478 ft 12 kts 354°
2026-05-05 18:31 48.35287 11.80173 1484 ft 9 kts 354°
2026-05-05 18:32 48.35337 11.80157 1476 ft 5 kts 325°
2026-05-05 18:32 48.35347 11.80119 1477 ft 4 kts 281°
2026-05-05 18:32 48.35343 11.80073 1477 ft 5 kts 262°
2026-05-05 18:32 48.35339 11.80019 1488 ft 1 kts 263°
2026-05-05 18:33 48.35339 11.80016 1488 ft 0 kts 263°